Weather Roundup
Issued by NWS

Home | Current Version | Previous Version | Graphics & Text | Print | Product List | Glossary Off
Versions: 1 2 3 4 5 6 7 8 9 10 11 12 13 14 15 16 17 18 19 20 21 22 23 24 25 26 27 28 29 30 31 32 33 34 35 36 37 38 39 40 41 42 43 44 45 46 47 48 49 50

000
NZUS93 KARX 261159
HRRWXR

CURRENT HOURLY OBSERVATIONS ACROSS
MUCH OF THE UPPER MISSISSIPPI VALLEY
NATIONAL WEATHER SERVICE LA CROSSE WI
600 AM CST MON JAN 26 2015


...SOUTHEAST MINNESOTA...


CITY           SKY/WX    TMP DP  RH WIND       PRES   REMARKS
ROCHESTER      LGT SNOW  26  23  88 S18G26    29.75F FOG     WCI  13
ROCHESTER/MAYO CLOUDY    26  24  94 SE7       29.78F WCI  18
WINONA         LGT SNOW  28  23  80 SE6       29.86S WCI  22
AUSTIN         MIX PCPN  27  27 100 S14       29.75F WCI  15
ALBERT LEA     CLOUDY    30  28  93 S10G22    29.72F WCI  21
DODGE CENTER   MIX PCPN  27  27 100 S14       29.75F WCI  15
PRESTON        LGT SNOW  24  23  94 S12       29.80F WCI  13
OWATONNA       CLOUDY    30  27  86 S12       29.75R WCI  21
FARIBAULT      CLOUDY    30  28  93 S8        29.75R WCI  23
$$

...ELSEWHERE IN MINNESOTA...


CITY           SKY/WX    TMP DP  RH WIND       PRES   REMARKS
MINNEAPOLIS    CLOUDY    27  23  85 SE10      29.74F WCI  17
INTNL FALLS    LGT SNOW  23  21  92 VRB5      29.54F FOG     WCI  17
DULUTH         FRZ DRZL  20  17  88 S13       29.65F WCI   7
RED WING       FLURRIES  27  25  93 SE5       29.79F WCI  21
REDWOOD FALLS  CLOUDY    36  31  82 SW17      29.68R WCI  26
MANKATO        CLOUDY    32  28  86 SW12      29.72R WCI  23
WORTHINGTON    CLOUDY    34  28  80 SW15      29.76R WCI  24
FAIRMONT       CLOUDY    34  28  80 SW23      29.71F WCI  22
$$

...SOUTHWEST WISCONSIN...


CITY           SKY/WX    TMP DP  RH WIND       PRES   REMARKS
LA CROSSE      FLURRIES  23  15  71 S10       29.87F WCI  12
PRAIRIE DU CHI CLOUDY    21  13  68 SE3       29.94F
BOSCOBEL       CLOUDY    21  12  68 S6        29.93F WCI  13
LONE ROCK      CLOUDY    17  12  80 E5        29.95S WCI  10
PLATTEVILLE    CLOUDY    18  14  84 SE6       29.93S WCI  10
FORT MC COY    CLOUDY    20  12  71 S6        29.89F WCI  13
CAMP DOUGLAS   CLOUDY    18  14  86 S10       29.89F WCI   6
VIROQUA        CLOUDY    19  14  80 S9        29.86F WCI   8
WIS DELLS      NOT AVBL
$$

...ELSEWHERE IN WISCONSIN...


CITY           SKY/WX    TMP DP  RH WIND       PRES   REMARKS
MILWAUKEE      CLOUDY    18  11  74 CALM      29.95S
MADISON        MOCLDY    16  11  80 CALM      29.94F
GREEN BAY      CLOUDY    14  10  84 CALM      29.95F
EAU CLAIRE     LGT SNOW  20  17  88 S8        29.81F VSB 3/4 WCI  10
BLACK RVR FLS  CLOUDY    20  12  71 CALM      29.87F
MEDFORD        CLOUDY    14   8  77 S8        29.82F WCI   3
WAUSAU         CLOUDY    14   6  70 SE7       29.86F WCI   4
WIS RAPIDS     CLOUDY    15   7  70 S7        29.90F WCI   5
MARSHFIELD     CLOUDY    16   9  74 S9        29.85F WCI   4
RICE LAKE      LGT SNOW  20  17  90 SE9       29.79F WCI   9
$$

...NORTHEAST IOWA...


CITY           SKY/WX    TMP DP  RH WIND       PRES   REMARKS
DECORAH        CLOUDY    23  18  80 S8        29.85F WCI  14
MASON CITY     CLOUDY    30  28  92 S18       29.80F WCI  18
CHARLES CITY   MIX PCPN  28  27  93 S10       29.87S WCI  19
OELWEIN        CLOUDY    23  19  86 S12       29.91S WCI  12
$$

...ELSEWHERE IN IOWA...


CITY           SKY/WX    TMP DP  RH WIND       PRES   REMARKS
DES MOINES     CLOUDY    33  26  75 SW9       29.94F WCI  25
IOWA CITY      CLOUDY    22  16  78 SE5       29.98F WCI  16
FORT DODGE     CLOUDY    30  27  86 S9        29.88F WCI  22
$$

...NORTHERN ILLINOIS...


CITY           SKY/WX    TMP DP  RH WIND       PRES   REMARKS
CHICAGO-OHARE  MOCLDY    16  12  84 NW6       29.95F WCI   7
CHICAGO-MIDWAY PTCLDY    23  16  74 N3        29.96F
MOLINE         CLOUDY    18  13  80 SE5       29.97F WCI  11
ROCKFORD       CLOUDY    16  10  77 CALM      29.98F
PEORIA         MOCLDY    20  14  77 NW6       30.00S WCI  12
$$

NOTE: "FAIR" INDICATES FEW OR NO CLOUDS BELOW 12,000 FEET WITH NO
SIGNIFICANT WEATHER AND/OR OBSTRUCTIONS TO VISIBILITY. WIND
SPEEDS ARE IN MILES-PER-HOUR.



USA.gov is the U.S. government's official web portal to all federal, state and local government web resources and services.